Main page
Satellite images Climate Cyclones Lightning AirportsFAQ Languages Contact Newsletter About
Weather : Europe Africa North America South America Asia Australia-Oceania Others

, Bangkok-Suvarnabhumi, Suvarnabhumi Airport

latitude: , longitude: Thailand, elevation: 13-40-52N m


METAR: VTBS 211700Z 27006KT 240V300 9999 FEW017CB SCT035 BKN100 27/24 Q1008 NOSIG